Regional Weather Roundup
Issued by NWS Cleveland, OH

Home | Current Version | Previous Version | Graphics & Text | Print | Product List | Glossary On
Versions: 1 2 3 4 5 6 7 8 9 10 11 12 13 14 15 16 17 18 19 20 21 22 23 24 25 26 27 28 29 30 31 32 33 34 35 36 37 38 39 40 41 42 43 44 45 46 47 48 49 50
000
ASUS41 KCLE 051510
RWRCLE
OHIO REGIONAL WEATHER ROUNDUP
NATIONAL WEATHER SERVICE CLEVELAND, OH
1100 AM EDT THU MAY 05 2016

NOTE: "FAIR" INDICATES FEW OR NO CLOUDS BELOW 12,000 FEET WITH NO
SIGNIFICANT WEATHER AND/OR OBSTRUCTIONS TO VISIBILITY.

OHZ001>008-015>018-024>027-034-035-043-044-051600-
   NORTHWEST OHIO

CITY           SKY/WX    TMP DP  RH WIND       PRES   REMARKS
DEFIANCE       PTSUNNY   56  45  66 N14G22    29.86R
FINDLAY        CLOUDY    52  43  71 NE13G22   29.82R
TOLEDO EXPRESS MOSUNNY   59  43  55 NE15G22   29.84R
TOLEDO EXEC    CLOUDY    56  45  66 NE12G20   29.85R
LIMA           CLOUDY    49  46  90 N9        29.83R
$$

OHZ009>014-019>023-028>033-038-089-051600-
   NORTHEAST OHIO

CITY           SKY/WX    TMP DP  RH WIND       PRES   REMARKS
CLE-HOPKINS    CLOUDY    52  47  83 N12       29.82R
CLE-LAKEFRONT  CLOUDY    51  48  89 NE20      29.79R FOG
CUY CO. ARPT   PTSUNNY   55  50  82 NE12      29.79R FOG
LORAIN-ELYRIA  CLOUDY    48  45  89 NE10      29.81R
ASHTABULA      CLOUDY    50  47  89 N9        29.79R
AKRON-CANTON   LGT RAIN  52  47  83 N8        29.76S
WOOSTER        CLOUDY    50  46  86 N8        29.78R
MANSFIELD      CLOUDY    48  46  93 N9        29.79R FOG
YOUNGSTOWN     LGT RAIN  50  48  93 NW3       29.75S FOG
$$

OHZ042-051>053-060>062-070>072-077>081-051600-
  SOUTHWEST OHIO

CITY           SKY/WX    TMP DP  RH WIND       PRES   REMARKS
CINC-COVINGTON PTSUNNY   49  37  63 N9        29.83R
CINC-LUNKEN    PTSUNNY   50  39  66 VRB7      29.85R
HAMILTON       CLOUDY    50  37  61 NE3       29.85R
DAYTON         CLOUDY    45  41  86 NW10      29.84S
WRIGHT-PAT AFB CLOUDY    45  43  93 NW5       29.83R
DAYTON GENERAL CLOUDY    48  35  60 N10       29.82S
WILMINGTON     CLOUDY    49  38  65 N9        29.81R
$$

OHZ036-037-039>041-045>050-054>059-063>069-073>076-082>088-051600-
  CENTRAL AND SOUTHEAST OHIO

CITY           SKY/WX    TMP DP  RH WIND       PRES   REMARKS
COLUMBUS       CLOUDY    46  44  93 NW10      29.79S
OSU AIRPORT    LGT RAIN  47  45  93 NW9       29.79S
BOLTON FIELD   CLOUDY    46  45  93 NW9       29.81R
RICKENBACK AFB CLOUDY    45  44  95 NW6       29.80R
NEWARK         CLOUDY    50  44  80 N5        29.78R
MARION         CLOUDY    49  46  90 N8        29.81R FOG
LANCASTER      CLOUDY    46  43  89 NW9       29.79S FOG
ZANESVILLE     CLOUDY    50  45  83 NW7       29.76S
NEW PHILLY     CLOUDY    53  48  83 NW7       29.76S
$$



USA.gov is the U.S. government's official web portal to all federal, state and local government web resources and services.